This is the latest recevied weather packets stored in our database for station/object N5DGC. If no packets are shown the sender has not sent any weather packets the latest 10 day(s).
| Time | Temp. | Humidity | Pressure | Rain* | Wind** | Luminosity | Snow |
|---|---|---|---|---|---|---|---|
| 1777917447 | 22.22° C | 21% | 1233.8 hPa | 0 mm | - | 609 W/m² | - |
| 1777917144 | 21.67° C | 20% | 1233.9 hPa | 0 mm | - | 665 W/m² | - |
| 1777916842 | 21.11° C | 21% | 1233.9 hPa | 0 mm | - | 587 W/m² | - |
| 1777916540 | 21.67° C | 19% | 1234.1 hPa | 0 mm | - | 485 W/m² | - |
| 1777916236 | 22.22° C | 18% | 1234.1 hPa | 0 mm | - | 511 W/m² | - |
| 1777915933 | 22.22° C | 19% | 1234.2 hPa | 0 mm | - | 454 W/m² | - |
| 1777915629 | 21.67° C | 20% | 1234 hPa | 0 mm | - | 668 W/m² | - |
| 1777915326 | 21.67° C | 20% | 1234.4 hPa | 0 mm | - | 574 W/m² | - |
| 1777915022 | 21.67° C | 21% | 1234.2 hPa | 0 mm | - | 518 W/m² | - |
| 1777914720 | 21.11° C | 22% | 1234.4 hPa | 0 mm | - | 452 W/m² | - |
| 1777914416 | 21.11° C | 22% | 1234.4 hPa | 0 mm | - | 431 W/m² | - |
| 1777914114 | 21.11° C | 21% | 1234.4 hPa | 0 mm | - | 457 W/m² | - |
| 1777913809 | 20.56° C | 22% | 1234.1 hPa | 0 mm | - | 372 W/m² | - |
| 1777913506 | 20.56° C | 22% | 1234.2 hPa | 0 mm | - | 395 W/m² | - |
| 1777913203 | 20° C | 23% | 1234.4 hPa | 0 mm | - | 361 W/m² | - |
| 1777912898 | 19.44° C | 25% | 1234.5 hPa | 0 mm | - | 316 W/m² | - |
| 1777912596 | 20° C | 26% | 1234.2 hPa | 0 mm | - | 307 W/m² | - |
| 1777912292 | 20° C | 25% | 1234.4 hPa | 0 mm | - | 312 W/m² | - |
| 1777911988 | 20° C | 25% | 1234.5 hPa | 0 mm | - | 309 W/m² | - |
| 1777911684 | 20° C | 24% | 1234.4 hPa | 0 mm | - | 329 W/m² | - |
| 1777911380 | 19.44° C | 24% | 1234.2 hPa | 0 mm | - | 362 W/m² | - |
| 1777911079 | 20° C | 24% | 1234.1 hPa | 0 mm | - | 330 W/m² | - |
| 1777910775 | 20° C | 24% | 1234.6 hPa | 0 mm | - | 323 W/m² | - |
| 1777910472 | 20° C | 26% | 1234.5 hPa | 0 mm | - | 326 W/m² | - |
| 1777910168 | 19.44° C | 28% | 1234.2 hPa | 0 mm | - | 345 W/m² | - |
* Rain latest hour (hover to see other rain measurements)
** Current wind speed in m/s (hover to see current wind gust speed)